Home > Weather > Eberswalde > Past weeks

Flag for Germany Past Weather in Eberswalde, Brandenburg, Germany — Yesterday and Last 2 Weeks

Now
63 °F

Fog.


Feels Like: 63 °F
Forecast: 64 / 76 °F
Wind: 3 mph from Southwest

Location: Berlin-Tegel

Current Time: Jul 28, 2016 at 4:56:06 AM

Latest Report: Jul 28, 2016 at 4:20 AM


Visibility: 3 mi

Pressure: 29.98 "Hg

Humidity: 94%

Dew Point: 61 °F

Location of EberswaldeLocation

Past Weather in Eberswalde — Graph

°F

Eberswalde Temperature Yesterday

Maximum temperature yesterday: 75 °F (at 10:50 AM)
Minimum temperature yesterday: 63 °F (at 4:50 AM)
Average temperature yesterday: 68 °F

High & Low Weather Summary for the Past Weeks

 TemperatureHumidityPressure
High88 °F (Jul 25, 2:20 PM)94% (Jul 13, 11:20 AM)30.24 "Hg (Jul 13, 11:20 AM)
Low48 °F (Jul 16, 5:20 AM)13% (Jul 22, 2:50 PM)29.86 "Hg (Jul 13, 3:20 AM)
Average69 °F63%30.05 "Hg
* Reported Jul 13 3:20 AM — Jul 28 3:50 AM, Eberswalde, Weather by CustomWeather, © 2016

Note: Actual official high and low records may vary slightly from our data, if they occured in-between our weather recording intervals... More about our weather records

Advertising

Eberswalde Weather History for the Previous 24 Hours

Scroll right to see more
 ConditionsComfort  
Time TempWeatherWind HumidityBarometerVisibility
3:50 AM
Thu, Jul 28
64 °FFog.5 mph94%29.98 "Hg2 mi
3:20 AM64 °FFog.6 mph94%29.98 "Hg2 mi
2:50 AM64 °FFog.6 mph94%29.98 "Hg2 mi
2:20 AM66 °FFog.5 mph88%29.98 "Hg2 mi
1:50 AM66 °FFog.5 mph88%29.98 "Hg3 mi
1:20 AM64 °FFog.2 mph94%29.95 "Hg3 mi
12:50 AM66 °FPassing clouds.5 mph88%29.98 "Hg4 mi
12:20 AM66 °FFog.8 mph88%29.98 "Hg3 mi
11:50 PM
Wed, Jul 27
66 °FPassing clouds.6 mph88%29.98 "Hg4 mi
11:20 PM64 °FPassing clouds.3 mph94%29.95 "Hg4 mi
10:50 PM66 °FPassing clouds.3 mph88%29.95 "Hg5 mi
10:20 PM66 °FPassing clouds.2 mph88%29.95 "Hg5 mi
9:50 PM66 °FPartly sunny.5 mph88%29.95 "Hg5 mi
9:20 PM66 °FScattered clouds.7 mph88%29.95 "HgN/A
8:50 PM66 °FScattered clouds.5 mph88%29.95 "HgN/A
8:20 PM66 °FBroken clouds.3 mph88%29.95 "HgN/A
7:50 PM68 °FMostly cloudy.1 mph88%29.95 "HgN/A
7:20 PM66 °FPartly sunny.3 mph88%29.95 "HgN/A
6:50 PM66 °FBroken clouds.2 mph88%29.95 "HgN/A
6:20 PM66 °FBroken clouds.5 mph88%29.95 "HgN/A
5:50 PM66 °FBroken clouds.5 mph88%29.95 "HgN/A
5:20 PM66 °FSprinkles. Broken clouds.6 mph88%29.95 "HgN/A
4:50 PM66 °FThunderstorms. Partly sunny.6 mph94%29.95 "Hg6 mi
4:20 PM66 °FThunderstorms. Partly sunny.7 mph88%29.98 "Hg6 mi
3:50 PM70 °FThunderstorms. Partly sunny.7 mph73%29.95 "HgN/A
3:20 PM73 °FThunderstorms. Broken clouds.6 mph61%29.95 "HgN/A
2:50 PM73 °FBroken clouds.7 mph61%29.95 "HgN/A
2:20 PM73 °FSprinkles. Broken clouds.10 mph61%29.95 "HgN/A
1:50 PM72 °FBroken clouds.12 mph65%29.98 "HgN/A
1:20 PM75 °FBroken clouds.3 mph57%29.98 "HgN/A
12:50 PM75 °FPartly sunny.5 mph61%30.01 "HgN/A
12:20 PM75 °FPartly sunny.10 mph57%30.01 "HgN/A
11:50 AM75 °FPartly sunny.12 mph54%30.01 "HgN/A
11:20 AM75 °FPartly sunny.13 mph54%30.01 "HgN/A
10:50 AM75 °FBroken clouds.13 mph54%30.04 "HgN/A
10:20 AM73 °FPassing clouds.13 mph50%30.04 "HgN/A
9:50 AM73 °FPassing clouds.12 mph50%30.04 "HgN/A
9:20 AM73 °FSunny.12 mph44%30.04 "Hg10 mi
8:50 AM72 °FSunny.12 mph47%30.04 "Hg10 mi
8:20 AM70 °FPassing clouds.10 mph50%30.04 "HgN/A
7:50 AM68 °FPassing clouds.9 mph53%30.04 "HgN/A
7:20 AM66 °FPassing clouds.8 mph60%30.04 "HgN/A
6:50 AM66 °FPassing clouds.6 mph64%30.07 "HgN/A
6:20 AM64 °FScattered clouds.7 mph68%30.07 "HgN/A
5:50 AM63 °FPassing clouds.6 mph73%30.07 "HgN/A
5:20 AM63 °FPassing clouds.5 mph73%30.07 "HgN/A
4:50 AM63 °FPassing clouds.5 mph73%30.07 "HgN/A
4:20 AM64 °FPassing clouds.3 mph64%30.07 "HgN/A
Weather by CustomWeather, © 2016

See weather overviewHow to use our weather pages